QPF
0.00 0.00 0.00 0.00 0.00 0.00 0.00 0.00 0.00 0.00 0.00 0.00 0.00 0.00 0.00 0.00 0.00 0.00 0.00 0.00 0.00 0.00 0.00 0.00 0.00 0.00 0.00 0.00 0.00 0.00 0.00 0.00 0.00 0.00 0.00 0.00 0.00 0.00 0.00 0.00 0.00 0.00 0.00 0.00 0.00
0.00 0.00 0.00 0.00 0.00 0.00 0.00 0.00 0.00 0.00 0.00 0.00 0.00 0.00 0.00 0.00 0.00 0.00 0.00 0.00 0.00 0.00 0.00 0.00 0.00 0.00 0.00 0.00 0.00 0.00 0.00 0.00 0.00 0.00 0.00 0.00 0.00 0.00 0.00 0.00 0.00 0.00 0.00 0.00 0.00
0.00 0.00 0.00 0.00 0.00 0.00 0.00 0.00 0.00 0.00 0.00 0.00 0.00 0.00 0.00 0.00 0.00 0.00 0.00 0.00 0.00 0.00 0.00 0.00 0.00 0.00 0.00 0.00 0.00 0.00 0.00 0.00 0.00 0.00 0.00 0.00 0.00 0.00 0.00 0.00 0.00 0.00 0.00 0.00 0.00
0.00 0.00 0.00 0.00 0.00 0.00 0.00 0.00 0.00 0.00 0.00 0.00 0.00 0.00 0.00 0.00 0.00 0.00 0.00 0.00 0.00 0.00 0.00 0.00 0.00 0.00 0.00 0.00 0.00 0.00 0.00 0.00 0.00 0.00 0.00 0.00 0.00 0.00 0.00 0.00 0.00 0.00 0.00 0.00 0.00
0.00 0.00 0.00 0.00 0.00 0.00 0.00 0.00 0.00 0.00 0.00 0.00 0.00 0.00 0.00 0.00 0.00 0.00 0.00 0.00 0.00 0.00 0.00 0.00 0.00 0.00 0.00 0.00 0.00 0.00 0.00 0.00 0.00 0.00 0.00 0.00 0.00 0.00 0.00 0.00 0.00 0.00 0.00 0.00 0.00
0.00 0.00 0.00 0.00 0.00 0.00 0.00 0.00 0.00 0.00 0.00 0.00 0.00 0.00 0.00 0.00 0.00 0.00 0.00 0.00 0.00 0.00 0.00 0.00 0.00 0.00 0.00 0.00 0.00 0.00 0.00 0.00 0.00 0.00 0.00 0.00 0.00 0.00 0.00 0.00 0.00 0.00 0.00 0.00 0.00
0.01 0.00 0.00 0.00 0.00 0.00 0.00 0.00 0.00 0.00 0.00 0.00 0.00 0.00 0.00 0.00 0.00 0.00 0.00 0.00 0.00 0.00 0.00 0.00 0.00 0.00 0.00 0.00 0.00 0.00 0.00 0.00 0.00 0.00 0.00 0.00 0.00 0.00 0.00 0.00 0.00 0.00 0.00 0.00 0.00
0.00 0.01 0.00 0.00 0.00 0.00 0.00 0.00 0.00 0.00 0.00 0.00 0.00 0.00 0.00 0.00 0.00 0.00 0.00 0.00 0.00 0.00 0.00 0.00 0.00 0.00 0.00 0.00 0.00 0.00 0.00 0.00 0.00 0.00 0.00 0.00 0.00 0.00 0.00 0.00 0.00 0.00 0.00 0.00 0.00
0.00 0.00 0.00 0.00 0.00 0.00 0.00 0.00 0.00 0.00 0.00 0.00 0.00 0.00 0.00 0.00 0.00 0.00 0.00 0.00 0.00 0.00 0.00 0.00 0.00 0.00 0.00 0.00 0.00 0.00 0.00 0.00 0.00 0.00 0.00 0.00 0.00 0.00 0.00 0.00 0.00 0.00 0.00 0.00 0.00
0.01 0.00 0.00 0.00 0.00 0.01 0.00 0.00 0.00 0.00 0.01 0.02 0.00 0.00 0.00 0.00 0.00 0.00 0.00 0.00 0.00 0.00 0.00 0.00 0.00 0.00 0.00 0.00 0.00 0.00 0.00 0.00 0.00 0.00 0.00 0.00 0.00 0.00 0.00 0.00 0.00 0.00 0.00 0.00 0.00
0.01 0.00 0.00 0.00 0.00 0.00 0.01 0.00 0.00 0.00 0.01 0.00 0.00 0.00 0.00 0.00 0.00 0.00 0.00 0.00 0.00 0.00 0.00 0.00 0.00 0.00 0.00 0.00 0.00 0.00 0.00 0.00 0.00 0.00 0.00 0.00 0.00 0.00 0.00 0.00 0.00 0.00 0.00 0.00 0.00
0.02 0.01 0.02 0.02 0.02 0.01 0.03 0.01 0.00 0.00 0.00 0.00 0.00 0.00 0.00 0.00 0.00 0.00 0.00 0.00 0.00 0.00 0.00 0.00 0.00 0.00 0.00 0.00 0.00 0.00 0.00 0.00 0.00 0.00 0.00 0.00 0.00 0.00 0.00 0.00 0.00 0.00 0.00 0.00 0.00
0.02 0.02 0.03 0.03 0.04 0.05 0.03 0.01 0.00 0.01 0.00 0.00 0.00 0.00 0.00 0.00 0.00 0.00 0.00 0.00 0.00 0.00 0.00 0.00 0.00 0.00 0.00 0.00 0.00 0.00 0.00 0.00 0.00 0.00 0.00 0.00 0.00 0.00 0.00 0.00 0.00 0.00 0.00 0.00 0.00
0.03 0.02 0.01 0.04 0.04 0.02 0.03 0.00 0.03 0.01 0.00 0.00 0.00 0.00 0.00 0.00 0.00 0.00 0.00 0.00 0.00 0.00 0.00 0.00 0.00 0.00 0.00 0.00 0.00 0.00 0.00 0.00 0.00 0.00 0.00 0.00 0.00 0.00 0.00 0.00 0.00 0.00 0.00 0.00 0.00
0.03 0.02 0.02 0.05 0.02 0.01 0.01 0.02 0.04 0.01 0.00 0.00 0.00 0.00 0.00 0.00 0.00 0.00 0.00 0.00 0.00 0.00 0.00 0.00 0.00 0.00 0.00 0.00 0.00 0.00 0.00 0.00 0.00 0.00 0.00 0.00 0.00 0.00 0.00 0.00 0.00 0.00 0.00 0.00 0.00
0.02 0.01 0.02 0.03 0.03 0.01 0.03 0.05 0.04 0.02 0.00 0.00 0.00 0.00 0.00 0.00 0.00 0.00 0.00 0.00 0.00 0.00 0.00 0.00 0.00 0.00 0.00 0.00 0.00 0.00 0.00 0.00 0.00 0.00 0.00 0.00 0.00 0.00 0.00 0.00 0.00 0.00 0.00 0.00 0.00
0.03 0.02 0.03 0.02 0.01 0.02 0.03 0.05 0.01 0.01 0.00 0.00 0.00 0.00 0.00 0.00 0.00 0.00 0.00 0.00 0.00 0.00 0.00 0.00 0.00 0.00 0.00 0.00 0.00 0.00 0.00 0.00 0.00 0.00 0.00 0.00 0.00 0.00 0.00 0.00 0.00 0.00 0.00 0.00 0.00
0.03 0.03 0.03 0.02 0.01 0.03 0.02 0.01 0.01 0.00 0.00 0.00 0.00 0.00 0.00 0.00 0.00 0.00 0.00 0.00 0.00 0.00 0.00 0.00 0.00 0.00 0.00 0.00 0.00 0.00 0.00 0.00 0.00 0.00 0.00 0.00 0.00 0.00 0.00 0.00 0.00 0.00 0.00 0.00 0.00
0.05 0.06 0.05 0.01 0.01 0.02 0.02 0.00 0.00 0.00 0.00 0.00 0.01 0.01 0.01 0.00 0.00 0.00 0.00 0.00 0.00 0.00 0.00 0.00 0.00 0.00 0.00 0.00 0.00 0.00 0.00 0.00 0.00 0.00 0.00 0.00 0.00 0.00 0.00 0.00 0.00 0.00 0.00 0.00 0.00
0.08 0.07 0.03 0.00 0.02 0.02 0.00 0.00 0.00 0.00 0.00 0.00 0.00 0.01 0.01 0.00 0.01 0.00 0.00 0.00 0.00 0.00 0.00 0.00 0.00 0.00 0.00 0.00 0.00 0.00 0.00 0.00 0.00 0.00 0.00 0.00 0.00 0.00 0.00 0.00 0.00 0.00 0.00 0.00 0.00
0.08 0.06 0.01 0.01 0.07 0.04 0.00 0.00 0.00 0.00 0.00 0.00 0.00 0.00 0.01 0.01 0.02 0.02 0.00 0.00 0.00 0.00 0.00 0.00 0.00 0.00 0.00 0.00 0.00 0.00 0.00 0.00 0.00 0.00 0.00 0.00 0.00 0.00 0.00 0.00 0.00 0.00 0.00 0.00 0.00
0.05 0.04 0.00 0.02 0.07 0.03 0.01 0.00 0.00 0.00 0.00 0.00 0.01 0.00 0.00 0.00 0.01 0.02 0.01 0.00 0.00 0.00 0.00 0.00 0.00 0.00 0.00 0.00 0.00 0.00 0.00 0.00 0.00 0.00 0.00 0.00 0.00 0.00 0.00 0.00 0.00 0.00 0.00 0.00 0.00
0.05 0.02 0.01 0.07 0.05 0.02 0.02 0.01 0.01 0.00 0.00 0.01 0.01 0.01 0.01 0.00 0.00 0.01 0.00 0.00 0.00 0.00 0.01 0.00 0.02 0.01 0.00 0.00 0.00 0.00 0.00 0.00 0.00 0.00 0.00 0.00 0.00 0.00 0.00 0.00 0.00 0.00 0.00 0.00 0.00
0.05 0.03 0.02 0.06 0.03 0.01 0.01 0.01 0.01 0.00 0.00 0.00 0.01 0.01 0.01 0.01 0.00 0.00 0.00 0.00 0.00 0.01 0.03 0.06 0.02 0.00 0.00 0.00 0.00 0.00 0.00 0.00 0.00 0.00 0.00 0.00 0.00 0.00 0.00 0.00 0.00 0.00 0.00 0.00 0.00
0.05 0.02 0.02 0.02 0.01 0.01 0.00 0.00 0.01 0.01 0.01 0.00 0.01 0.01 0.01 0.01 0.01 0.00 0.00 0.00 0.01 0.01 0.03 0.07 0.05 0.00 0.00 0.00 0.00 0.00 0.00 0.00 0.00 0.00 0.00 0.00 0.00 0.00 0.00 0.00 0.00 0.00 0.00 0.00 0.00
0.03 0.01 0.01 0.01 0.01 0.01 0.01 0.01 0.00 0.00 0.00 0.00 0.00 0.00 0.00 0.01 0.01 0.01 0.00 0.00 0.00 0.02 0.04 0.06 0.04 0.02 0.00 0.00 0.00 0.00 0.00 0.00 0.00 0.00 0.00 0.00 0.00 0.00 0.00 0.00 0.00 0.00 0.00 0.00 0.00
0.02 0.01 0.02 0.01 0.01 0.02 0.02 0.01 0.00 0.00 0.00 0.00 0.00 0.00 0.00 0.00 0.00 0.00 0.00 0.00 0.00 0.01 0.02 0.03 0.03 0.03 0.02 0.00 0.00 0.01 0.00 0.00 0.00 0.00 0.00 0.00 0.00 0.00 0.00 0.00 0.00 0.00 0.00 0.00 0.00
MSLP
1019.03 1019.03 1018.85 1018.58 1018.46 1018.34 1018.00 1017.78 1017.41 1016.95 1016.77 1016.67 1016.54 1016.39 1016.15 1015.76 1015.37 1014.78 1014.32 1013.29 1012.99 1013.06 1012.94 1012.30 1012.17 1011.99 1011.88 1011.52 1011.39 1010.96 1010.53 1009.44 1008.48 1007.74 1007.39 1007.47 1007.52 1007.41 1007.61 1007.59 1007.69 1008.25 1009.08 1010.34 1011.22
1019.23 1019.14 1018.99 1018.83 1018.54 1018.43 1018.10 1017.81 1017.56 1017.12 1016.75 1016.51 1016.41 1016.29 1016.08 1015.73 1015.19 1014.13 1012.98 1013.11 1013.13 1013.21 1013.07 1012.44 1012.01 1011.86 1011.74 1011.48 1011.49 1011.23 1010.48 1009.34 1008.70 1008.37 1008.32 1008.13 1008.32 1007.99 1007.94 1007.96 1008.09 1008.74 1009.92 1011.04 1011.82
1019.30 1019.09 1019.05 1018.93 1018.68 1018.46 1018.17 1017.92 1017.66 1017.22 1016.79 1016.47 1016.36 1016.17 1016.02 1015.73 1014.86 1013.17 1013.03 1013.17 1013.22 1013.24 1013.07 1012.39 1011.97 1011.88 1011.79 1011.30 1011.37 1010.90 1010.33 1009.49 1009.23 1009.36 1009.32 1009.29 1009.00 1008.64 1008.55 1008.28 1007.97 1008.44 1009.43 1010.73 1011.74
1019.18 1019.05 1018.93 1018.79 1018.65 1018.48 1018.30 1018.03 1017.59 1017.30 1016.98 1016.74 1016.21 1016.16 1015.97 1015.73 1014.81 1013.28 1013.14 1013.22 1013.37 1013.16 1013.08 1012.53 1012.29 1012.03 1011.75 1011.29 1011.09 1010.96 1010.45 1010.15 1009.83 1010.06 1010.24 1010.04 1009.62 1009.24 1008.97 1008.77 1008.15 1008.26 1008.91 1010.09 1011.14
1019.01 1018.93 1018.81 1018.64 1018.47 1018.26 1018.15 1017.96 1017.67 1017.32 1017.02 1016.65 1016.24 1016.05 1015.75 1015.35 1013.74 1013.11 1013.16 1013.21 1013.49 1013.38 1012.96 1012.69 1012.23 1012.01 1011.51 1011.06 1011.06 1011.01 1010.95 1010.57 1010.18 1010.41 1010.61 1010.59 1010.22 1010.06 1009.13 1008.60 1008.16 1008.36 1008.91 1009.85 1010.57
1018.68 1018.67 1018.66 1018.55 1018.41 1018.24 1018.02 1017.85 1017.71 1017.50 1017.07 1016.69 1016.35 1016.17 1015.86 1014.93 1013.09 1012.97 1013.28 1013.41 1013.32 1013.42 1013.05 1012.73 1012.26 1011.91 1011.81 1011.26 1011.17 1011.21 1011.12 1010.85 1010.59 1010.56 1010.58 1010.73 1010.24 1010.17 1008.48 1008.02 1008.14 1008.27 1008.75 1009.24 1009.87
1018.21 1018.38 1018.35 1018.31 1018.19 1018.01 1017.86 1017.65 1017.59 1017.37 1017.08 1016.68 1016.33 1015.94 1015.32 1013.56 1012.84 1012.98 1013.19 1013.32 1013.35 1013.29 1013.10 1012.92 1012.55 1012.43 1011.96 1011.72 1011.41 1011.46 1011.56 1010.91 1010.41 1010.32 1010.64 1010.57 1010.10 1009.34 1007.77 1008.23 1008.03 1008.02 1008.24 1008.95 1009.31
1017.85 1017.82 1017.97 1018.05 1018.01 1017.91 1017.71 1017.51 1017.32 1017.12 1016.88 1016.64 1016.30 1016.07 1014.76 1012.87 1012.65 1012.81 1013.08 1013.11 1013.36 1013.33 1013.31 1013.01 1013.01 1012.81 1012.38 1012.24 1011.94 1011.87 1011.61 1011.00 1009.81 1009.65 1010.71 1010.86 1009.58 1008.34 1007.69 1007.49 1007.72 1007.78 1008.10 1008.31 1008.73
1017.43 1017.54 1017.56 1017.67 1017.64 1017.58 1017.49 1017.29 1017.05 1016.71 1016.43 1016.30 1016.36 1015.90 1013.83 1012.92 1012.77 1012.31 1012.68 1012.80 1013.18 1013.30 1013.36 1013.20 1013.30 1012.93 1012.65 1012.56 1012.29 1011.79 1011.49 1010.72 1009.98 1009.74 1010.44 1010.86 1009.73 1008.49 1008.01 1007.77 1007.89 1007.70 1007.56 1007.82 1008.11
1017.01 1017.02 1017.12 1017.17 1017.32 1017.25 1017.11 1016.89 1016.43 1016.27 1015.99 1015.94 1015.86 1015.72 1013.03 1012.04 1011.70 1011.87 1012.24 1012.64 1013.00 1013.39 1013.43 1013.41 1013.37 1013.11 1012.85 1012.69 1011.93 1011.30 1011.26 1010.55 1010.28 1010.39 1010.61 1010.76 1009.87 1008.91 1008.21 1008.03 1007.72 1007.77 1007.40 1007.47 1007.70
1016.39 1016.49 1016.64 1016.70 1016.78 1016.90 1017.00 1016.71 1016.40 1015.87 1015.35 1013.78 1013.09 1012.11 1011.15 1011.63 1011.76 1011.97 1012.06 1012.59 1012.79 1013.36 1013.22 1013.33 1013.17 1012.23 1012.12 1011.83 1011.21 1010.99 1010.98 1010.65 1009.97 1010.48 1010.69 1010.51 1009.61 1008.69 1008.00 1007.65 1007.42 1007.15 1007.15 1007.31 1007.42
1015.64 1015.80 1016.09 1016.17 1016.29 1016.36 1016.62 1016.20 1015.53 1016.02 1014.61 1013.34 1012.37 1012.19 1011.29 1011.35 1011.39 1011.63 1012.11 1012.44 1012.58 1012.68 1012.97 1013.16 1011.75 1011.87 1011.80 1011.68 1011.60 1011.53 1011.46 1011.14 1010.73 1010.57 1010.99 1010.54 1009.54 1008.29 1007.57 1006.80 1006.51 1006.67 1006.77 1006.72 1007.05
1015.05 1015.19 1015.41 1015.76 1015.89 1015.99 1015.90 1015.63 1015.19 1015.32 1014.67 1012.04 1011.26 1010.86 1010.90 1011.04 1010.78 1010.56 1011.41 1011.42 1011.72 1012.05 1011.92 1011.61 1010.90 1010.93 1011.25 1011.17 1011.34 1011.32 1011.40 1011.52 1011.49 1011.34 1011.16 1010.88 1009.21 1007.28 1005.74 1005.64 1005.79 1005.83 1005.82 1006.17 1006.39
1014.30 1014.60 1014.87 1015.35 1016.19 1015.41 1015.10 1015.17 1015.34 1015.49 1014.47 1010.33 1009.16 1008.08 1009.40 1010.66 1009.53 1009.65 1010.04 1010.25 1010.75 1010.85 1011.51 1011.40 1010.88 1010.75 1010.92 1010.67 1011.15 1011.18 1011.02 1011.56 1011.90 1012.27 1012.31 1011.42 1009.73 1007.45 1005.77 1005.34 1005.27 1005.13 1005.49 1005.49 1005.96
1013.63 1014.14 1014.44 1014.70 1014.98 1014.70 1014.43 1014.57 1015.21 1015.59 1013.59 1007.17 1006.45 1005.99 1006.69 1007.78 1007.29 1008.04 1009.32 1009.73 1009.60 1009.97 1010.48 1009.97 1010.17 1010.30 1010.44 1010.18 1010.98 1011.24 1011.09 1011.60 1012.22 1012.69 1012.78 1011.72 1011.21 1007.05 1005.57 1005.23 1004.95 1004.52 1004.57 1004.99 1005.78
1013.41 1013.24 1013.89 1014.19 1014.54 1014.95 1014.57 1014.36 1015.23 1015.14 1009.93 1006.32 1005.34 1005.56 1006.53 1007.52 1006.94 1007.18 1008.69 1009.30 1009.08 1009.64 1009.63 1009.73 1009.83 1009.77 1009.90 1010.19 1010.78 1011.40 1012.12 1012.51 1012.95 1013.52 1013.33 1011.53 1010.48 1006.58 1005.35 1004.21 1003.90 1003.69 1003.96 1004.55 1005.58
1013.04 1012.57 1012.70 1013.09 1013.66 1014.53 1014.60 1014.29 1014.04 1011.04 1006.73 1005.77 1005.48 1005.73 1006.12 1006.61 1007.50 1007.24 1008.07 1008.56 1008.09 1009.17 1009.09 1009.89 1009.87 1009.83 1009.90 1010.46 1010.97 1011.56 1012.15 1013.51 1014.27 1014.33 1012.39 1010.71 1009.89 1005.58 1004.26 1003.43 1003.52 1003.61 1004.18 1004.79 1005.78
1012.28 1012.21 1011.76 1012.02 1012.58 1014.02 1014.40 1013.66 1010.86 1007.01 1006.14 1004.56 1005.23 1005.75 1005.75 1006.06 1006.92 1006.75 1007.39 1007.55 1007.33 1007.07 1008.10 1008.71 1009.58 1009.22 1009.51 1009.58 1010.17 1011.11 1011.31 1011.90 1013.19 1013.49 1012.13 1010.73 1008.21 1004.82 1003.31 1002.76 1002.79 1003.22 1003.99 1005.22 1006.27
1011.33 1011.86 1011.07 1011.50 1011.93 1013.00 1013.22 1010.42 1008.00 1005.97 1006.06 1005.78 1005.54 1005.88 1005.91 1005.36 1005.62 1006.44 1006.13 1005.95 1006.12 1006.11 1006.84 1007.59 1008.00 1007.70 1008.40 1008.88 1009.56 1011.12 1010.93 1010.91 1011.99 1012.64 1012.04 1009.45 1006.68 1004.42 1003.24 1002.87 1003.00 1003.64 1004.32 1005.25 1006.17
1010.65 1011.04 1010.67 1010.82 1011.42 1012.26 1012.08 1010.02 1008.41 1007.22 1006.22 1006.13 1005.72 1005.38 1005.40 1005.37 1005.72 1006.22 1005.65 1004.74 1005.42 1005.89 1006.04 1006.35 1007.49 1007.87 1008.45 1009.13 1008.90 1009.13 1009.94 1011.23 1011.80 1012.16 1011.27 1008.30 1006.41 1003.73 1002.87 1002.72 1002.96 1003.78 1004.22 1004.98 1005.78
1010.28 1009.58 1009.13 1010.08 1010.97 1010.97 1009.60 1009.63 1009.36 1008.30 1007.52 1006.59 1006.17 1005.62 1005.39 1005.21 1005.18 1004.89 1003.99 1004.14 1004.31 1004.78 1005.93 1006.38 1006.85 1008.44 1008.33 1007.88 1007.77 1009.01 1009.08 1009.08 1009.84 1009.91 1009.25 1007.95 1004.43 1002.08 1001.82 1001.85 1002.51 1002.99 1003.88 1004.86 1005.76
1008.09 1007.53 1007.89 1009.17 1010.21 1009.26 1008.99 1009.47 1009.02 1008.45 1008.71 1007.63 1006.64 1006.94 1006.03 1005.50 1004.77 1004.38 1003.54 1003.31 1003.50 1004.28 1004.74 1005.45 1006.68 1007.90 1007.99 1008.08 1007.84 1007.58 1006.84 1007.53 1007.91 1008.40 1008.07 1006.95 1002.43 1001.55 1001.29 1001.37 1002.08 1002.98 1003.88 1004.58 1005.42
1007.62 1008.12 1007.82 1008.55 1008.41 1008.90 1008.82 1008.99 1009.27 1009.11 1009.18 1008.92 1008.06 1007.79 1006.83 1006.18 1005.58 1004.62 1003.77 1003.36 1003.29 1003.45 1003.77 1004.80 1005.76 1007.35 1008.64 1009.08 1007.70 1006.95 1007.13 1007.15 1006.96 1007.39 1007.34 1006.74 1002.43 1001.06 1001.46 1001.79 1002.50 1003.38 1004.20 1004.89 1005.67
1007.98 1007.93 1007.53 1008.06 1007.74 1008.04 1008.47 1008.44 1008.67 1008.79 1008.07 1008.47 1009.03 1009.11 1007.87 1006.93 1006.68 1005.10 1004.22 1003.88 1003.32 1003.38 1004.19 1004.50 1004.97 1005.27 1004.60 1003.79 1006.03 1007.28 1006.94 1006.94 1007.21 1007.59 1005.35 1004.39 1001.91 1002.07 1002.17 1002.38 1003.03 1003.57 1004.40 1005.05 1005.89
1005.54 1005.84 1005.31 1006.10 1006.72 1006.95 1007.47 1007.69 1007.42 1007.44 1008.00 1008.40 1008.44 1008.85 1008.65 1007.52 1007.16 1006.25 1004.90 1004.37 1004.10 1003.58 1004.54 1005.33 1004.41 1004.85 1004.72 1004.76 1005.34 1005.34 1006.30 1006.47 1006.65 1005.16 1005.93 1001.79 1002.42 1002.08 1001.97 1002.17 1002.81 1003.44 1004.41 1005.42 1006.10
1005.19 1005.44 1005.34 1005.08 1005.34 1006.04 1006.19 1006.59 1006.75 1006.99 1007.29 1007.02 1007.78 1008.26 1007.89 1007.18 1007.15 1007.23 1006.90 1005.79 1004.88 1004.38 1004.65 1005.47 1004.63 1004.91 1004.73 1004.65 1005.33 1005.14 1005.38 1005.35 1005.21 1004.40 1004.30 1002.03 1001.56 1001.64 1001.60 1001.87 1002.49 1003.09 1004.22 1005.16 1005.69
1004.07 1004.71 1004.63 1004.89 1004.87 1005.36 1005.14 1005.24 1005.25 1005.57 1005.97 1005.99 1006.57 1006.67 1006.46 1006.92 1007.37 1007.49 1007.70 1007.53 1006.78 1005.41 1004.68 1005.21 1004.83 1005.33 1004.59 1004.49 1004.87 1004.43 1003.94 1004.58 1004.11 1003.21 1002.78 1002.24 998.83 1001.22 1000.95 1001.35 1001.94 1002.52 1003.25 1004.01 1004.73
Thickness
5577 5576 5577 5578 5580 5581 5585 5588 5595 5600 5603 5606 5610 5614 5618 5621 5627 5635 5638 5653 5660 5663 5668 5677 5679 5683 5687 5687 5692 5698 5679 5684 5699 5711 5718 5725 5723 5734 5737 5734 5740 5742 5738 5733 5730
5570 5570 5570 5571 5573 5575 5579 5583 5587 5593 5597 5601 5605 5609 5613 5618 5624 5632 5646 5648 5652 5655 5661 5666 5669 5676 5674 5680 5682 5678 5676 5692 5708 5711 5710 5720 5718 5723 5725 5726 5730 5732 5732 5727 5724
5560 5564 5564 5565 5567 5568 5571 5575 5580 5586 5591 5594 5600 5604 5608 5614 5622 5637 5641 5642 5645 5649 5654 5663 5669 5669 5665 5678 5677 5681 5677 5698 5702 5701 5705 5706 5710 5722 5718 5715 5731 5729 5729 5726 5721
5550 5554 5558 5560 5561 5563 5565 5567 5573 5578 5583 5586 5593 5597 5601 5607 5614 5632 5633 5636 5637 5643 5647 5652 5656 5656 5658 5664 5676 5669 5686 5688 5698 5694 5695 5698 5709 5709 5716 5716 5735 5738 5738 5731 5724
5541 5543 5547 5551 5555 5558 5559 5562 5565 5570 5575 5580 5586 5591 5598 5602 5615 5626 5628 5630 5630 5635 5639 5643 5646 5649 5653 5666 5668 5668 5674 5685 5692 5690 5690 5694 5694 5698 5708 5721 5733 5737 5733 5728 5726
5531 5533 5536 5540 5545 5549 5553 5556 5558 5561 5567 5572 5577 5581 5588 5593 5617 5620 5621 5622 5624 5625 5630 5636 5642 5648 5648 5657 5660 5667 5669 5676 5684 5686 5690 5684 5692 5698 5716 5724 5724 5728 5724 5727 5728
5521 5522 5525 5529 5532 5538 5543 5547 5551 5554 5560 5564 5569 5575 5583 5599 5611 5614 5615 5616 5618 5620 5622 5628 5636 5635 5644 5645 5659 5660 5651 5665 5677 5683 5680 5689 5682 5694 5715 5719 5719 5727 5728 5722 5725
5510 5513 5514 5517 5521 5525 5531 5537 5541 5546 5551 5555 5561 5566 5576 5599 5604 5608 5608 5610 5611 5615 5616 5623 5625 5626 5633 5640 5643 5641 5648 5646 5677 5683 5675 5678 5680 5707 5718 5719 5715 5720 5722 5724 5726
5497 5500 5504 5506 5509 5513 5517 5525 5532 5537 5543 5548 5551 5558 5579 5594 5594 5602 5602 5603 5604 5606 5609 5615 5614 5618 5625 5622 5623 5635 5629 5645 5666 5676 5665 5661 5676 5699 5709 5712 5707 5714 5722 5724 5723
5488 5489 5490 5494 5496 5500 5505 5512 5522 5527 5533 5536 5543 5549 5582 5593 5598 5597 5599 5598 5595 5594 5597 5600 5601 5602 5608 5608 5605 5626 5626 5643 5646 5654 5656 5653 5664 5683 5696 5700 5705 5709 5717 5723 5723
5477 5479 5479 5481 5484 5485 5490 5499 5508 5514 5521 5547 5559 5574 5586 5585 5587 5586 5590 5587 5589 5586 5587 5591 5588 5598 5609 5616 5625 5629 5626 5634 5654 5645 5648 5648 5662 5680 5689 5694 5700 5708 5712 5714 5718
5463 5467 5468 5469 5472 5475 5474 5482 5496 5491 5507 5531 5546 5556 5570 5579 5579 5581 5581 5578 5579 5579 5583 5581 5591 5605 5611 5613 5613 5612 5612 5618 5634 5639 5635 5638 5650 5676 5686 5694 5702 5703 5708 5714 5716
5444 5450 5453 5454 5456 5461 5467 5473 5477 5480 5484 5522 5540 5546 5562 5563 5570 5577 5574 5576 5575 5575 5581 5584 5602 5601 5603 5605 5605 5606 5605 5608 5612 5623 5627 5624 5640 5668 5693 5696 5700 5705 5711 5713 5716
5423 5428 5434 5435 5436 5446 5456 5459 5460 5460 5457 5512 5535 5550 5552 5547 5563 5575 5578 5577 5575 5576 5576 5577 5593 5594 5592 5600 5600 5596 5611 5608 5607 5603 5594 5623 5605 5661 5683 5692 5697 5699 5704 5709 5713
5400 5403 5407 5414 5423 5434 5441 5440 5437 5441 5431 5535 5540 5557 5560 5551 5571 5574 5572 5568 5570 5575 5576 5581 5584 5584 5586 5599 5595 5595 5606 5602 5599 5594 5592 5606 5594 5647 5674 5680 5691 5698 5701 5705 5706
5371 5381 5383 5388 5399 5409 5416 5420 5411 5413 5445 5508 5530 5535 5540 5543 5556 5560 5555 5558 5566 5565 5573 5574 5579 5582 5586 5589 5588 5587 5582 5584 5585 5581 5554 5597 5600 5634 5662 5680 5689 5700 5705 5702 5701
5345 5355 5362 5367 5380 5383 5390 5394 5396 5420 5504 5499 5514 5520 5524 5529 5531 5537 5543 5541 5549 5540 5551 5557 5561 5575 5583 5574 5580 5576 5573 5542 5546 5540 5567 5606 5599 5648 5669 5682 5690 5697 5694 5692 5690
5322 5329 5342 5350 5359 5359 5362 5371 5390 5460 5480 5515 5508 5503 5504 5516 5517 5528 5526 5531 5554 5565 5549 5548 5533 5562 5571 5573 5571 5569 5577 5558 5546 5551 5578 5589 5597 5639 5669 5681 5687 5687 5690 5679 5676
5309 5318 5323 5334 5341 5343 5349 5378 5399 5461 5474 5480 5482 5472 5483 5505 5511 5509 5521 5535 5548 5562 5552 5548 5550 5568 5569 5575 5569 5554 5554 5585 5556 5517 5557 5589 5621 5648 5662 5666 5670 5669 5675 5673 5669
5296 5302 5309 5324 5327 5327 5330 5351 5382 5422 5448 5449 5445 5468 5462 5483 5485 5484 5506 5535 5537 5543 5556 5557 5536 5545 5555 5556 5564 5564 5571 5546 5534 5535 5553 5588 5607 5633 5653 5656 5660 5659 5661 5667 5666
5282 5292 5316 5315 5312 5313 5323 5338 5350 5385 5409 5422 5426 5450 5467 5467 5477 5485 5506 5520 5530 5537 5537 5543 5537 5519 5534 5539 5554 5546 5552 5571 5569 5567 5566 5562 5604 5654 5661 5667 5666 5664 5657 5657 5657
5290 5296 5315 5305 5295 5309 5318 5323 5345 5360 5372 5388 5413 5406 5432 5462 5468 5474 5492 5503 5516 5522 5518 5533 5526 5487 5512 5536 5550 5561 5576 5575 5564 5546 5559 5573 5623 5657 5661 5664 5663 5660 5652 5650 5651
5278 5278 5295 5294 5287 5295 5312 5315 5322 5336 5348 5347 5366 5382 5411 5427 5438 5465 5478 5494 5498 5507 5511 5524 5502 5503 5474 5487 5522 5529 5552 5565 5576 5562 5557 5568 5608 5651 5650 5651 5649 5648 5643 5639 5640
5268 5269 5281 5279 5290 5295 5298 5305 5309 5323 5337 5346 5344 5351 5374 5394 5407 5436 5460 5471 5486 5495 5498 5502 5501 5508 5524 5553 5529 5504 5527 5549 5555 5535 5582 5591 5626 5630 5639 5641 5636 5635 5636 5633 5630
5278 5281 5296 5289 5285 5294 5303 5307 5312 5315 5326 5335 5331 5333 5349 5369 5383 5395 5437 5455 5464 5483 5479 5474 5482 5499 5508 5524 5521 5522 5508 5521 5528 5565 5553 5609 5596 5620 5630 5630 5629 5626 5628 5623 5617
5276 5276 5284 5293 5297 5293 5302 5298 5304 5314 5312 5323 5318 5331 5346 5350 5368 5385 5398 5424 5446 5461 5471 5463 5469 5470 5481 5502 5498 5500 5507 5510 5526 5547 5554 5588 5589 5616 5624 5625 5620 5624 5619 5616 5615
5270 5275 5282 5285 5287 5287 5294 5303 5311 5320 5316 5325 5327 5332 5336 5343 5356 5362 5373 5377 5398 5434 5453 5454 5460 5461 5473 5488 5483 5472 5501 5491 5517 5544 5555 5558 5618 5617 5614 5619 5620 5617 5617 5618 5619